Weather in Fakaofo

Tokelau     11°03′34″S   171°03′50″W
temp.,
°C
wind,
m/s
gust,
m/s
humid.,
%
clouds,
%
prec.,
mm/h
press.,
hPa
HPBL,
m
23 october, sat
sat2301:00+27sse4478100 1.6 1011519
04:00+27se5681100 4.4 1011476
07:00+27se7880100 8.3 1012760
10:00+27se677894 3.6 1013774
13:00+28se557652 4.1 1010749
16:00+28se6674100 0.6 1008901
19:00+28se777745 1.1 1010843
22:00+28se8874100 0.6 1011981
24 october, sun
sun2401:00+28se877597 0.8 1009984
04:00+27se7777100 0.3 1008878
07:00+27se7777100 1.1 1011894
10:00+28ese777699 0.6 1011950
13:00+27ese667711 2.0 1009739
16:00+27ese567712 4.0 1008682
19:00+27ese567770 6.4 1009718
22:00+27ese557850 2.0 1011600
25 october, mon
mon2501:00+27ese557817 3.6 1009682
04:00+27ese5577100 0.9 1009757
07:00+27e557634 1.5 1011748
10:00+27e447522 0.7 1012755
13:00+27e33765 2.3 1010491
16:00+27ene117481 2.9 1009470
19:00+27e0176100 7.8 1011214
22:00+27nne117350 0.3 1012509
26 october, tue
tue2601:00+27nw2274100 0.5 1011583
04:00+27nw337690 0.6 1011626
07:00+26n448187 3.8 1013368
10:00+25n4486100 2.4 1014312
13:00+26n1281100 2.8 1012234
16:00+27n347699 0.2 1011562
19:00+27n237472 0.2 1012589
22:00+28n23739 0.5 1014549
27 october, wed
wed2701:00+28n337135 0.6 1012787
04:00+28n33737 0.1 1012722
07:00+27n22732 2.9 1014567
10:00+27nne22741 1.9 1014393
13:00+27nne22730 3.1 1012473
16:00+28ne11700 0.2 1011690
19:00+28se11690 0.4 1013723
22:00+28ese22715 0.0 1014732